Hourly Data Report for September 25, 2020

SHEARWATER RCS
NOVA SCOTIA
Current Station Operator: ECCC - MSC

44°37'47.000" N
63°30'48.000" W
24.00 m
8205092
71264
AAW

Download Data

Hourly Data (September 2020)
Hourly Data Report for September 25, 2020
TIME Temp Definition
°C
Dew Point Definition
°C
Rel Hum Definition
%
Wind Dir Definition
10's deg

Wind Spd Definition
km/h
Visibility Definition
km
Stn Press Definition
kPa
Hmdx Definition


Wind Chill Definition


Weather Definition


00:00 14.3 11.3 82 27 6   101.01     LegendNANA
01:00 14.1 11.0 82 26 6   101.06     LegendNANA
02:00 12.6 10.4 87 31 6   101.13     LegendNANA
03:00 12.0 10.2 88 32 8   101.21     LegendNANA
04:00 11.4 9.8 89 32 8   101.24     LegendNANA
05:00 10.2 9.1 93   0   101.32     LegendNANA
06:00 10.4 9.1 91 4 2   101.42     LegendNANA
07:00 10.8 9.5 92 34 3   101.50     LegendNANA
08:00 12.3 8.8 79 31 3   101.59     LegendNANA
09:00 13.4 9.4 76 29 2   101.61     LegendNANA
10:00 14.9 9.2 69 27 5   101.66     LegendNANA
11:00 16.3 7.0 54 26 5   101.65     LegendNANA
12:00 17.8 7.2 50 27 4   101.62     LegendNANA
13:00 17.4 9.9 62 16 12   101.60     LegendNANA
14:00 18.5 7.9 50 17 9   101.56     LegendNANA
15:00 18.8 8.7 52 15 12   101.55     LegendNANA
16:00 19.3 8.5 50 17 7   101.56     LegendNANA
17:00 18.4 8.7 53 24 10   101.60     LegendNANA
18:00 16.5 8.4 59 28 7   101.64     LegendNANA
19:00 14.5 9.2 70 29 6   101.71     LegendNANA
20:00 12.1 9.2 83 34 2   101.75     LegendNANA
21:00 11.6 8.9 83 32 5   101.82     LegendNANA
22:00 9.9 6.8 81 35 2   101.85     LegendNANA
23:00 9.5 7.1 85   0   101.84     LegendNANA

Notes on Data Quality.

Legend

  • E = Estimated
  • M = Missing
  • NA = Not Available*
  • [empty] = Indicates an unobserved value
Date modified: